[[{"header":{"parameterUnit":"m.s-1","parameterCategory":2,"la1":30.2991,"la2":30.254,"lo1":-89.0895,"lo2":-89.0444,"dy":0.0017,"dx":0.0017,"nx":28,"ny":28,"refTime":"2024-04-24T09:00:00:Z","depth":"0","parameterNumber":2,"parameterNumberName":"U-component_of_CURRENTS"},"data":[0,0,0,0,0,0,0,0,0,0,0,0,0,0,0,0,0,0,0,0,0,0,0,0,0,0,0,0,0,0,0,0,0,0,0,0,0,0,0,0,0,0,0,0,0,0,0,0,0,0,0,0,0,0,0,0,0,0,0.3761,0.3762,0,0.3816,0.3816,0.3816,0.3799,0.3798,0.3797,0.3796,0.3843,0.3845,0.3847,0,0,0,0,0,0,0,0,0,0,0,0,0,0.3695,0.3696,0.3761,0.3762,0.3763,0.3816,0.3816,0.3817,0.3799,0.3798,0.3797,0.3796,0.3843,0.3845,0.3848,0,0,0,0,0,0,0,0,0,0,0,0,0,0.3731,0.3696,0.3761,0.3763,0.3764,0.3816,0.3816,0.3817,0.3799,0.3798,0.3797,0.3796,0.3842,0.3845,0.3848,0.3893,0,0,0.3857,0.3859,0,0,0,0,0,0,0,0,0.3729,0.3733,0.3762,0.3763,0.3764,0.3802,0.381,0.3843,0.38,0.3782,0.3796,0.3795,0.3832,0.3836,0.3844,0.3895,0.3897,0.3858,0.386,0.3861,0.3862,0,0,0,0,0,0,0,0.3726,0.3731,0.3779,0.3763,0.3765,0.378,0.3783,0.3816,0.3811,0.3784,0.3783,0.3796,0.3832,0.3841,0.3845,0.3898,0.3858,0.386,0.3862,0.3863,0.4016,0.4018,0,0,0,0,0,0,0.3725,0.3728,0.3777,0.3781,0.3747,0.3782,0.3785,0.3789,0.3811,0.3814,0.3797,0.3795,0.3837,0.3842,0.3847,0.3938,0.3861,0.3864,0.3865,0.4013,0.4016,0.4018,0,0,0,0,0,0,0.3723,0.3729,0.3775,0.3759,0.3766,0.3785,0.3789,0.379,0.3804,0.3821,0.3823,0.3809,0.3836,0.3843,0.3887,0.3938,0.3865,0.3868,0.4011,0.4014,0.4017,0.4096,0,0,0,0,0,0,0.3721,0.3727,0.3736,0.3759,0.3767,0.3821,0.379,0.3793,0.3815,0.3813,0.3833,0.3835,0.3835,0.3883,0.3891,0.3941,0.387,0.4008,0.4012,0.4016,0.4091,0.4102,0.4111,0,0,0,0,0,0.3718,0.374,0.3736,0.3743,0.3776,0.3823,0.3829,0.3835,0.3817,0.3838,0.3846,0.3835,0.3914,0.3887,0.3896,0.3948,0.4006,0.4011,0.4016,0.4086,0.4099,0.4111,0,0,0,0,0,0,0.3722,0.3741,0.3737,0.3763,0.3796,0.3821,0.3846,0.3845,0.3868,0.3863,0.3863,0.3868,0.393,0.3928,0.3898,0.4004,0.396,0.3966,0.401,0.4023,0.4033,0.4076,0.3873,0,0,0,0,0,0.3726,0.3743,0.3768,0.3794,0.3809,0.3827,0.3847,0.3853,0.3875,0.3883,0.3892,0.3913,0.3959,0.3978,0.401,0.4068,0.4125,0.4107,0.4117,0.4126,0.4167,0.429,0.4316,0.4035,0.4035,0.4035,0,0,0.3733,0.3751,0.3758,0.3797,0.3817,0.3861,0.3835,0.3875,0.3915,0.3888,0.3936,0.3951,0.3983,0.4048,0.4075,0.4051,0.4238,0.4132,0.4139,0.4177,0.4298,0.4326,0.4351,0.4038,0.4037,0.4037,0,0,0.3768,0.3774,0.38,0.383,0.3872,0.3893,0.3907,0.3934,0.395,0.3999,0.3999,0.4052,0.4088,0.414,0.4168,0.4259,0.4289,0.4252,0.4341,0.4459,0.4484,0.4507,0.4624,0.4657,0.4255,0.4256,0.4256,0,0.3778,0.3809,0.382,0.3861,0.3894,0.391,0.3956,0.399,0.4027,0.4059,0.4023,0.413,0.4148,0.4269,0.4299,0.4288,0.4354,0.4288,0.4476,0.4499,0.4521,0.4636,0.4671,0.426,0.4259,0.4259,0.4259,0,0.3829,0.386,0.3885,0.3936,0.3979,0.4023,0.407,0.4112,0.4122,0.4151,0.4246,0.4276,0.4348,0.4358,0.436,0.4524,0.4521,0.4476,0.4447,0.4555,0.4668,0.4703,0.4266,0.4265,0.4263,0.4262,0,0,0.3834,0.3903,0.3912,0.3945,0.4018,0.4059,0.4145,0.4228,0.4302,0.4327,0.4431,0.4504,0.4516,0.4553,0.4565,0.4665,0.4872,0.4643,0.4647,0.4766,0.5151,0.5043,0.507,0.4855,0.4861,0.4866,0.5171,0,0.387,0.3947,0.3978,0.4065,0.4109,0.4161,0.4245,0.4325,0.4392,0.4497,0.455,0.4649,0.4592,0.4648,0.474,0.4847,0.4967,0.4795,0.5025,0.5033,0.4928,0.5108,0.4815,0.5053,0.5205,0.5211,0.5215,0,0.3902,0.3955,0.4035,0.413,0.4156,0.4214,0.436,0.4439,0.4592,0.4647,0.4752,0.4799,0.4968,0.4891,0.5144,0.5036,0.5122,0.5184,0.5196,0.5098,0.499,0.4969,0.5111,0.4913,0.5269,0.5265,0.5261,0,0.3895,0.399,0.4054,0.4085,0.4204,0.4258,0.433,0.4479,0.4578,0.4767,0.4872,0.5022,0.5146,0.5263,0.5375,0.5293,0.5649,0.5542,0.5532,0.5525,0.5327,0.5291,0.531,0.5755,0.5754,0.5753,0.5752,0,0.3913,0.3964,0.4052,0.4089,0.4193,0.4265,0.4403,0.4506,0.4683,0.4829,0.4949,0.5104,0.5252,0.5438,0.5492,0.564,0.575,0.5619,0.562,0.5343,0.5306,0.516,0.5094,0.5765,0.5762,0.576,0.5758,0,0.3892,0.3948,0.4031,0.4148,0.419,0.4265,0.443,0.4547,0.471,0.4922,0.4998,0.5246,0.5482,0.5617,0.5858,0.5809,0.5769,0.5959,0.5623,0.5577,0.5295,0.5244,0.5224,0.5082,0.6001,0.6,0.6,0,0.3881,0.3925,0.4057,0.4135,0.4187,0.4304,0.4405,0.4551,0.4673,0.4992,0.5097,0.5401,0.5562,0.5867,0.5877,0.5995,0.5809,0.5774,0.5546,0.5305,0.5253,0.5076,0.4944,0.5334,0.5328,0.5324,0.532,0,0.3893,0.3942,0.4031,0.4169,0.4273,0.4367,0.4498,0.4574,0.4771,0.4932,0.5162,0.5319,0.5612,0.5595,0.5745,0.5749,0.5441,0.5676,0.5522,0.4841,0.4562,0.4411,0.5119,0.5277,0.5281,0.5285,0.5287,0.5289,0.3917,0.3975,0.4103,0.4221,0.4333,0.4393,0.4406,0.4528,0.4647,0.4786,0.5047,0.516,0.5248,0.5395,0.5393,0.5142,0.5207,0.4911,0.4915,0.4794,0.4499,0.512,0.5195,0.5199,0.5202,0.5205,0.5207,0,0.394,0.4021,0.4153,0.4257,0.4322,0.4379,0.4452,0.4399,0.442,0.4593,0.4712,0.4735,0.4687,0.473,0.4597,0.4398,0.419,0.4241,0.3903,0.3846,0.448,0.4281,0.4041,0.4041,0.4042,0.4042,0.4042,0.4042,0.3972,0.408,0.4131,0.4217,0.4265,0.4207,0.4186,0.4108,0.4139,0.4065,0.4048,0.4139,0.4242,0.4163,0.3924,0.3809,0.3521,0.3334,0.341,0.3795,0.3855,0.3911,0.3704,0.3348,0.3347,0.2539,0.2532,0.2528]},{"header":{"parameterUnit":"m.s-1","parameterCategory":2,"la1":30.2991,"la2":30.254,"lo1":-89.0895,"lo2":-89.0444,"dy":0.0017,"dx":0.0017,"nx":28,"ny":28,"refTime":"2024-04-24T09:00:00:Z","depth":"0","parameterNumber":3,"parameterNumberName":"V-component_of_CURRENTS"},"data":[0,0,0,0,0,0,0,0,0,0,0,0,0,0,0,0,0,0,0,0,0,0,0,0,0,0,0,0,0,0,0,0,0,0,0,0,0,0,0,0,0,0,0,0,0,0,0,0,0,0,0,0,0,0,0,0,0,0,0.0173,0.0172,0,0.0111,0.011,0.011,0.0059,0.0058,0.0058,0.0058,-0.0023,-0.0025,-0.0027,0,0,0,0,0,0,0,0,0,0,0,0,0,0.0218,0.0217,0.0173,0.0172,0.0172,0.0111,0.011,0.0109,0.0059,0.0058,0.0058,0.0058,-0.0022,-0.0025,-0.0027,0,0,0,0,0,0,0,0,0,0,0,0,0,0.018,0.0217,0.0173,0.014,0.0137,0.0112,0.011,0.0109,0.0059,0.0058,0.0058,0.0057,-0.0022,-0.0024,-0.0027,-0.0032,0,0,-0.0035,-0.0036,0,0,0,0,0,0,0,0,0.0182,0.0178,0.0146,0.0143,0.0139,0.0094,0.0097,0.0061,0.0059,0.0087,0.0058,0.0057,0.0016,0.001,-0.0003,-0.0036,-0.004,-0.0036,-0.0037,-0.0038,-0.0039,0,0,0,0,0,0,0,0.0185,0.018,0.0147,0.0145,0.0141,0.0119,0.0113,0.009,0.0054,0.0084,0.0081,0.0077,0.0013,0.0,-0.0005,-0.0041,-0.0035,-0.0038,-0.004,-0.0041,-0.0073,-0.0073,0,0,0,0,0,0,0.0198,0.0183,0.0149,0.0145,0.0162,0.0119,0.0112,0.0107,0.0054,0.0046,0.0078,0.0075,0.0005,-0.0002,-0.0008,0.0007,-0.0038,-0.0041,-0.0042,-0.0074,-0.0073,-0.0072,0,0,0,0,0,0,0.0199,0.0196,0.0151,0.0164,0.0157,0.0119,0.0114,0.0106,0.0097,0.0049,0.0041,0.0077,0.0004,-0.0004,-0.002,0.0003,-0.0042,-0.0045,-0.0075,-0.0074,-0.0073,0.0022,0,0,0,0,0,0,0.0201,0.0196,0.02,0.0165,0.0157,0.0149,0.0114,0.0106,0.0096,0.0092,0.0046,0.0037,0.0003,-0.0016,-0.0023,-0.0002,-0.0047,-0.0076,-0.0074,-0.0073,0.0018,0.0026,0.0033,0,0,0,0,0,0.0203,0.0215,0.0201,0.0197,0.0163,0.015,0.0144,0.0113,0.0097,0.0101,0.0069,0.0039,-0.0012,-0.0017,-0.0025,-0.0005,-0.0077,-0.0075,-0.0073,0.0014,0.0025,0.0033,0,0,0,0,0,0,0.0239,0.021,0.0194,0.0197,0.018,0.0142,0.0144,0.0122,0.0099,0.0095,0.0048,0.0038,0.0027,-0.0,-0.0005,-0.0011,-0.0049,-0.0049,0.0021,0.003,0.0038,0.0089,-0.0049,0,0,0,0,0,0.0249,0.0248,0.0219,0.0222,0.0217,0.0182,0.0173,0.0154,0.0128,0.0117,0.0083,0.0051,0.0027,0.0021,-0.0012,-0.0008,-0.0006,-0.0001,0.0007,0.0014,0.0049,0.0062,0.0076,-0.0067,-0.0067,-0.0067,0,0,0.0263,0.0248,0.0247,0.023,0.0212,0.0219,0.0175,0.017,0.0181,0.0112,0.0115,0.0071,0.0031,0.0028,0.0023,0.0011,0.0055,0.0016,0.0022,0.0055,0.0066,0.008,0.0092,-0.0066,-0.0066,-0.0066,0,0,0.0298,0.0279,0.0293,0.0285,0.0268,0.025,0.0255,0.0223,0.0215,0.0211,0.0163,0.0146,0.0104,0.0089,0.0075,0.0111,0.0086,0.0088,0.0181,0.0193,0.0205,0.0216,0.0241,0.0254,0.0103,0.0103,0.0103,0,0.0318,0.0333,0.0297,0.0312,0.0321,0.0272,0.0302,0.0285,0.0253,0.0268,0.0226,0.0196,0.0143,0.017,0.017,0.0132,0.0137,0.0149,0.0206,0.0217,0.0227,0.0249,0.0262,0.0108,0.0107,0.0107,0.0106,0,0.0364,0.038,0.039,0.0395,0.0397,0.0415,0.0393,0.0398,0.0379,0.0366,0.0379,0.0317,0.0313,0.0278,0.0231,0.0277,0.0257,0.0206,0.019,0.0248,0.0266,0.0278,0.0114,0.0113,0.0111,0.011,0,0,0.0413,0.0424,0.0432,0.0461,0.045,0.0466,0.049,0.0515,0.0565,0.0516,0.0587,0.0513,0.0489,0.0472,0.0412,0.0412,0.046,0.0347,0.0345,0.0387,0.0505,0.044,0.0446,0.0418,0.042,0.0422,0.0493,0,0.047,0.0531,0.0517,0.0585,0.0621,0.0599,0.064,0.0652,0.0655,0.0704,0.0656,0.0683,0.0561,0.0576,0.0553,0.0489,0.0495,0.0448,0.0432,0.0432,0.0379,0.0459,0.0427,0.0484,0.0504,0.0506,0.0508,0,0.0532,0.057,0.065,0.0712,0.0729,0.0762,0.0846,0.0874,0.0913,0.0923,0.0935,0.0897,0.09,0.0784,0.0733,0.0709,0.0626,0.0563,0.0563,0.0486,0.0389,0.0426,0.0504,0.0275,0.0525,0.0524,0.0522,0,0.0613,0.067,0.075,0.0766,0.0819,0.0869,0.0903,0.095,0.1019,0.1081,0.1155,0.1117,0.1155,0.1035,0.0884,0.0823,0.0832,0.0729,0.0601,0.0596,0.0561,0.0548,0.0432,0.0711,0.0711,0.0711,0.071,0,0.0693,0.0757,0.08,0.0847,0.0963,0.0965,0.1097,0.1128,0.1218,0.1349,0.1285,0.1403,0.1221,0.1188,0.0995,0.0856,0.0921,0.0657,0.0621,0.059,0.0579,0.0368,0.0251,0.0713,0.0713,0.0712,0.0712,0,0.0771,0.0795,0.0895,0.0973,0.1006,0.1094,0.1215,0.1317,0.1389,0.157,0.1612,0.1654,0.1628,0.1425,0.1274,0.1042,0.0752,0.0807,0.0787,0.0745,0.0362,0.0252,0.0132,0.0052,0.0684,0.0683,0.0682,0,0.0818,0.0877,0.099,0.1063,0.1104,0.1223,0.1319,0.1399,0.1524,0.1741,0.1858,0.1907,0.1979,0.1728,0.1344,0.1033,0.0793,0.0755,0.0609,0.0373,0.0225,0.0126,0.006,0.0609,0.0608,0.0607,0.0606,0,0.0916,0.0955,0.1037,0.1176,0.1288,0.1422,0.1568,0.169,0.1835,0.2016,0.2259,0.2345,0.214,0.1841,0.1384,0.1123,0.0579,0.0719,0.0491,0.0185,0.006,-0.0045,0.0533,0.0596,0.0597,0.0597,0.0598,0.0598,0.0993,0.1064,0.1167,0.13,0.1435,0.1614,0.1749,0.1933,0.2171,0.2456,0.2522,0.269,0.2207,0.1605,0.125,0.0504,0.0535,0.0238,0.0141,0.0074,-0.0059,0.0497,0.0489,0.049,0.049,0.049,0.0491,0,0.1077,0.1151,0.1281,0.145,0.1613,0.1665,0.1914,0.2077,0.2378,0.2632,0.2839,0.2658,0.2075,0.1444,0.0454,-0.0019,-0.0177,-0.027,-0.0419,-0.0445,0.0069,0.0003,-0.013,-0.013,-0.0129,-0.0129,-0.0129,-0.0129,0.1128,0.1249,0.1306,0.1567,0.1698,0.1931,0.2082,0.2343,0.2562,0.2835,0.2915,0.2936,0.2379,0.0755,-0.0358,-0.0592,-0.0873,-0.0937,-0.105,-0.0736,-0.0697,-0.0659,-0.0751,-0.104,-0.1041,-0.1531,-0.1536,-0.154]}],[{"header":{"parameterUnit":"m.s-1","parameterCategory":2,"la1":30.2991,"la2":30.254,"lo1":-89.0895,"lo2":-89.0444,"dy":0.0017,"dx":0.0017,"nx":28,"ny":28,"refTime":"2024-04-24T09:00:00:Z","depth":"2","parameterNumber":2,"parameterNumberName":"U-component_of_CURRENTS"},"data":[0,0,0,0,0,0,0,0,0,0,0,0,0,0,0,0,0,0,0,0,0,0,0,0,0,0,0,0,0,0,0,0,0,0,0,0,0,0,0,0,0,0,0,0,0,0,0,0,0,0,0,0,0,0,0,0,0,0,0.2989,0.2989,0,0.3026,0.3026,0.3026,0.3038,0.3038,0.3039,0.3039,0.3062,0.3062,0.3062,0,0,0,0,0,0,0,0,0,0,0,0,0,0.2934,0.2935,0.2989,0.299,0.299,0.3026,0.3026,0.3026,0.3038,0.3038,0.3039,0.3039,0.3061,0.3062,0.3062,0,0,0,0,0,0,0,0,0,0,0,0,0,0.2959,0.2935,0.2989,0.3004,0.3006,0.3026,0.3026,0.3026,0.3038,0.3038,0.3039,0.3039,0.3061,0.3062,0.3062,0.306,0,0,0.3064,0.3065,0,0,0,0,0,0,0,0,0.2958,0.2961,0.3001,0.3003,0.3005,0.3031,0.3015,0.3038,0.3038,0.3021,0.3039,0.3039,0.3052,0.3054,0.3054,0.3061,0.3062,0.3064,0.3065,0.3065,0.3065,0,0,0,0,0,0,0,0.2956,0.2959,0.2999,0.3002,0.3004,0.3011,0.3014,0.3019,0.3031,0.3023,0.3025,0.3035,0.3053,0.3054,0.3055,0.3062,0.3064,0.3065,0.3065,0.3066,0.3163,0.3165,0,0,0,0,0,0,0.2959,0.2958,0.2998,0.3001,0.2986,0.3012,0.3015,0.3019,0.3032,0.3035,0.3035,0.3036,0.3053,0.3054,0.3056,0.3134,0.3065,0.3066,0.3066,0.316,0.3163,0.3165,0,0,0,0,0,0,0.2958,0.2962,0.2997,0.2984,0.2989,0.3013,0.3017,0.302,0.3039,0.3042,0.3044,0.3053,0.3053,0.3055,0.3086,0.3132,0.3066,0.3066,0.3158,0.3161,0.3164,0.3238,0,0,0,0,0,0,0.2956,0.2961,0.297,0.2984,0.299,0.3027,0.3017,0.302,0.3046,0.3047,0.3058,0.3059,0.3053,0.3085,0.3086,0.3132,0.3067,0.3155,0.3159,0.3163,0.3233,0.3244,0.3253,0,0,0,0,0,0.2953,0.2972,0.297,0.2976,0.2999,0.3029,0.3033,0.3048,0.3046,0.3063,0.3074,0.306,0.3113,0.3087,0.3088,0.3135,0.3153,0.3158,0.3163,0.3229,0.3242,0.3253,0,0,0,0,0,0,0.2956,0.2975,0.2974,0.2997,0.3018,0.3033,0.3052,0.3059,0.3078,0.308,0.3078,0.3081,0.3138,0.3121,0.3092,0.3177,0.3135,0.3141,0.3185,0.3197,0.3207,0.3252,0.3067,0,0,0,0,0,0.2958,0.2974,0.2994,0.3012,0.3024,0.3037,0.3053,0.3062,0.308,0.3089,0.3098,0.3116,0.3157,0.3162,0.319,0.3216,0.3254,0.3251,0.3261,0.3269,0.331,0.3404,0.3427,0.3182,0.3182,0.3182,0,0,0.2962,0.2977,0.2985,0.3014,0.3026,0.3059,0.3047,0.3076,0.3113,0.3088,0.3137,0.3157,0.3177,0.3227,0.3249,0.3215,0.3358,0.3276,0.3283,0.3319,0.3412,0.3436,0.3458,0.3185,0.3185,0.3184,0,0,0.2982,0.2992,0.3011,0.3036,0.3067,0.3081,0.3095,0.3119,0.3141,0.3186,0.3196,0.3246,0.3274,0.331,0.333,0.3409,0.3421,0.341,0.3479,0.357,0.3592,0.3611,0.3683,0.3708,0.3397,0.3397,0.3397,0,0.2983,0.3014,0.3024,0.3057,0.3084,0.3097,0.3132,0.3162,0.3196,0.3235,0.3216,0.3324,0.3328,0.3422,0.3454,0.3435,0.3483,0.3427,0.3585,0.3605,0.3624,0.3693,0.372,0.3401,0.3401,0.34,0.34,0,0.3024,0.3051,0.3069,0.3112,0.3143,0.3177,0.3217,0.3262,0.3288,0.3324,0.3426,0.3442,0.3512,0.3518,0.3512,0.3646,0.3636,0.36,0.3555,0.3653,0.3719,0.3746,0.3407,0.3406,0.3404,0.3403,0,0,0.301,0.3081,0.3088,0.3119,0.3175,0.3205,0.3282,0.3361,0.3434,0.3478,0.3581,0.365,0.3671,0.3698,0.3695,0.3763,0.3921,0.3742,0.3744,0.3815,0.4129,0.3977,0.3991,0.3915,0.392,0.3924,0.4118,0,0.3035,0.3098,0.3135,0.3205,0.3236,0.3293,0.3372,0.345,0.3513,0.3617,0.3675,0.3777,0.3733,0.3784,0.3848,0.3915,0.3998,0.3873,0.4023,0.4028,0.3883,0.4019,0.3663,0.3794,0.4144,0.4149,0.4152,0,0.3057,0.3098,0.3164,0.3258,0.3282,0.3344,0.3474,0.3547,0.3696,0.3756,0.3859,0.3913,0.4043,0.3985,0.4161,0.4085,0.4137,0.4171,0.4178,0.4037,0.3927,0.3756,0.383,0.4197,0.4193,0.419,0.4187,0,0.3026,0.3117,0.3172,0.3203,0.3317,0.3385,0.3461,0.3598,0.3675,0.3864,0.3955,0.4088,0.4187,0.4274,0.4341,0.428,0.4528,0.4438,0.4356,0.4345,0.4074,0.4029,0.4602,0.4602,0.4601,0.4601,0.46,0,0.3028,0.3069,0.3174,0.3204,0.3294,0.339,0.3506,0.3611,0.3775,0.3889,0.403,0.415,0.4276,0.4407,0.4433,0.4484,0.4607,0.4423,0.4405,0.4085,0.4041,0.4405,0.438,0.4608,0.4606,0.4605,0.4604,0,0.2976,0.3042,0.3105,0.3234,0.3273,0.3345,0.3497,0.36,0.3773,0.3932,0.4013,0.4249,0.4421,0.4515,0.4679,0.4599,0.4662,0.4654,0.4262,0.4192,0.4394,0.4371,0.458,0.4576,0.4574,0.4571,0.4569,0,0.2949,0.2987,0.3093,0.3139,0.3201,0.3311,0.3399,0.3569,0.3669,0.3972,0.4054,0.431,0.4408,0.4587,0.4553,0.4581,0.4678,0.4253,0.4056,0.4442,0.4404,0.4384,0.4364,0.3735,0.3727,0.372,0.3714,0,0.2911,0.2961,0.3005,0.3093,0.3181,0.3252,0.3385,0.3434,0.3662,0.3809,0.4006,0.4121,0.4308,0.4175,0.4234,0.4194,0.42,0.4105,0.4672,0.377,0.3654,0.3612,0.362,0.3651,0.3657,0.3662,0.3665,0.3668,0.2884,0.2884,0.2964,0.3028,0.3099,0.3148,0.3164,0.3323,0.3426,0.3565,0.3761,0.3811,0.386,0.375,0.3666,0.3623,0.3883,0.3681,0.37,0.3728,0.3569,0.3452,0.3383,0.3387,0.3391,0.3395,0.3398,0,0.2815,0.2836,0.2905,0.2918,0.2921,0.3037,0.3116,0.3099,0.3139,0.33,0.3367,0.3099,0.3035,0.3137,0.2959,0.2936,0.2892,0.2824,0.273,0.2795,0.2852,0.2645,0.2217,0.2213,0.2209,0.2206,0,0,0.2778,0.2769,0.2771,0.2717,0.2748,0.2682,0.2695,0.2729,0.2782,0.2732,0.2728,0.2878,0.3019,0.2563,0.2501,0.2335,0.2545,0.225,0.3201,0.3154,0.3207,0.3355,0.3112,0,0,0,0,0]},{"header":{"parameterUnit":"m.s-1","parameterCategory":2,"la1":30.2991,"la2":30.254,"lo1":-89.0895,"lo2":-89.0444,"dy":0.0017,"dx":0.0017,"nx":28,"ny":28,"refTime":"2024-04-24T09:00:00:Z","depth":"2","parameterNumber":3,"parameterNumberName":"V-component_of_CURRENTS"},"data":[0,0,0,0,0,0,0,0,0,0,0,0,0,0,0,0,0,0,0,0,0,0,0,0,0,0,0,0,0,0,0,0,0,0,0,0,0,0,0,0,0,0,0,0,0,0,0,0,0,0,0,0,0,0,0,0,0,0,0.0035,0.0034,0,-0.002,-0.0021,-0.0021,-0.0059,-0.0059,-0.0059,-0.006,-0.0123,-0.0125,-0.0126,0,0,0,0,0,0,0,0,0,0,0,0,0,0.007,0.007,0.0035,0.0034,0.0034,-0.002,-0.0021,-0.0021,-0.0059,-0.0059,-0.006,-0.006,-0.0123,-0.0125,-0.0126,0,0,0,0,0,0,0,0,0,0,0,0,0,0.0039,0.007,0.0035,0.0009,0.0006,-0.002,-0.0021,-0.0022,-0.0059,-0.0059,-0.006,-0.006,-0.0122,-0.0124,-0.0127,-0.0133,0,0,-0.0133,-0.0134,0,0,0,0,0,0,0,0,0.004,0.0037,0.0013,0.0011,0.0007,-0.0033,-0.0032,-0.0059,-0.0059,-0.0035,-0.006,-0.006,-0.0093,-0.0098,-0.0108,-0.0136,-0.0139,-0.0134,-0.0135,-0.0136,-0.0136,0,0,0,0,0,0,0,0.0043,0.0039,0.0013,0.0013,0.0009,-0.0013,-0.0018,-0.0037,-0.0062,-0.0037,-0.004,-0.0045,-0.0095,-0.0106,-0.011,-0.014,-0.0133,-0.0135,-0.0137,-0.0138,-0.0171,-0.017,0,0,0,0,0,0,0.0053,0.0041,0.0014,0.0011,0.0024,-0.0013,-0.0018,-0.002,-0.0062,-0.0068,-0.0045,-0.0046,-0.0102,-0.0107,-0.0112,-0.0104,-0.0136,-0.0138,-0.0139,-0.0171,-0.0171,-0.017,0,0,0,0,0,0,0.0054,0.0051,0.0017,0.0025,0.0019,-0.0013,-0.0015,-0.0021,-0.0028,-0.0067,-0.0074,-0.0045,-0.0102,-0.0109,-0.0123,-0.0107,-0.0139,-0.0141,-0.0172,-0.0171,-0.017,-0.0099,0,0,0,0,0,0,0.0055,0.0052,0.0055,0.0026,0.0019,0.0011,-0.0015,-0.0022,-0.0031,-0.0034,-0.007,-0.0077,-0.0103,-0.012,-0.0125,-0.0111,-0.0143,-0.0172,-0.0171,-0.0171,-0.0102,-0.0096,-0.0091,0,0,0,0,0,0.0057,0.0066,0.0056,0.0052,0.0025,0.0012,0.0007,-0.0019,-0.003,-0.0028,-0.0054,-0.0075,-0.0119,-0.0121,-0.0128,-0.0114,-0.0173,-0.0172,-0.0171,-0.0105,-0.0097,-0.0091,0,0,0,0,0,0,0.0083,0.0062,0.005,0.0053,0.0037,0.0006,0.0005,-0.0012,-0.0031,-0.0033,-0.007,-0.0078,-0.0088,-0.011,-0.0112,-0.0122,-0.0149,-0.0149,-0.0096,-0.009,-0.0085,-0.0056,-0.0144,0,0,0,0,0,0.0091,0.0093,0.0068,0.0071,0.0065,0.0037,0.0028,0.0013,-0.0009,-0.0017,-0.0044,-0.007,-0.0089,-0.0096,-0.0122,-0.0122,-0.0145,-0.0119,-0.0113,-0.0108,-0.009,-0.0112,-0.0107,-0.0167,-0.0167,-0.0167,0,0,0.0101,0.009,0.0091,0.0077,0.0061,0.0066,0.0031,0.0025,0.0033,-0.0021,-0.002,-0.0055,-0.0088,-0.0093,-0.0098,-0.0107,-0.0105,-0.0107,-0.0102,-0.0087,-0.0111,-0.0105,-0.0099,-0.0166,-0.0166,-0.0166,0,0,0.0127,0.0114,0.0127,0.012,0.0105,0.0089,0.0092,0.0066,0.0058,0.0052,0.0015,-0.0004,-0.0035,-0.0052,-0.0064,-0.0042,-0.008,-0.0055,0.0003,-0.0018,-0.0013,-0.0009,-0.0035,-0.0033,-0.0045,-0.0045,-0.0045,0,0.0141,0.0155,0.0128,0.0141,0.0145,0.0106,0.0127,0.0114,0.0087,0.0091,0.0063,0.0025,-0.0011,-0.0005,-0.0002,-0.0027,-0.0049,-0.0018,-0.001,-0.0006,-0.0003,-0.003,-0.003,-0.0042,-0.0042,-0.0043,-0.0043,0,0.0178,0.0191,0.0199,0.0205,0.0204,0.0216,0.0198,0.0199,0.018,0.0165,0.016,0.0109,0.0093,0.0071,0.004,0.005,0.0023,-0.0005,-0.0022,0.0008,-0.0024,-0.0024,-0.0037,-0.0038,-0.0039,-0.004,0,0,0.0212,0.0225,0.0231,0.0254,0.0244,0.0255,0.0269,0.0278,0.0305,0.0262,0.0293,0.0239,0.0209,0.0193,0.0148,0.0125,0.0115,0.0077,0.0074,0.0059,0.0065,0.0013,0.0006,0.0088,0.0088,0.0088,0.0032,0,0.0254,0.0302,0.0293,0.0344,0.037,0.0352,0.0379,0.038,0.0367,0.0383,0.0333,0.0338,0.0257,0.0259,0.0219,0.0149,0.0118,0.0133,0.0032,0.0029,-0.0015,0.0006,0.0041,-0.0009,0.0031,0.0031,0.0031,0,0.03,0.0329,0.0388,0.0435,0.0447,0.0474,0.052,0.0538,0.0541,0.0534,0.0515,0.0471,0.0442,0.0367,0.026,0.0273,0.0179,0.011,0.0106,0.0037,-0.0024,-0.0033,-0.0012,0.0029,0.0029,0.003,0.003,0,0.0353,0.04,0.0457,0.0471,0.0512,0.0549,0.0575,0.059,0.0635,0.064,0.0675,0.0602,0.06,0.0471,0.0319,0.0295,0.0195,0.0142,0.0003,-0.0002,-0.0001,-0.0007,0.0065,0.0065,0.0065,0.0065,0.0066,0,0.0409,0.0455,0.0495,0.0531,0.0615,0.0621,0.0711,0.0722,0.0771,0.0857,0.0767,0.0819,0.0628,0.0544,0.0373,0.0194,0.0234,0.0024,-0.0015,0.0022,0.0019,0.003,0.0026,0.0063,0.0064,0.0064,0.0064,0,0.0457,0.0479,0.0553,0.0617,0.0643,0.0709,0.0808,0.088,0.0912,0.1024,0.1044,0.0995,0.0889,0.0676,0.0477,0.0287,0.0108,0.003,0.0081,0.0049,-0.0093,-0.0092,-0.0131,-0.0133,-0.0135,-0.0136,-0.0138,0,0.0485,0.053,0.0617,0.0675,0.071,0.0806,0.0886,0.0944,0.1039,0.115,0.1226,0.1159,0.1125,0.0791,0.0464,0.015,0.0111,-0.0043,-0.0097,-0.0077,-0.0111,-0.0107,-0.0103,-0.0068,-0.0069,-0.0069,-0.007,0,0.0547,0.058,0.0643,0.0753,0.0847,0.0959,0.1084,0.1182,0.1293,0.1402,0.1526,0.1506,0.1194,0.088,0.0424,0.0211,0.0001,-0.0067,-0.0034,-0.0033,-0.0025,-0.0056,-0.0053,-0.0075,-0.0074,-0.0074,-0.0073,-0.0073,0.06,0.065,0.0736,0.0843,0.0962,0.112,0.123,0.1392,0.1573,0.1744,0.171,0.1683,0.1308,0.0723,0.0355,-0.0032,-0.0025,-0.0177,-0.0172,-0.0167,-0.0158,-0.0156,-0.0227,-0.0228,-0.0228,-0.0228,-0.0229,0,0.0664,0.072,0.082,0.0972,0.1123,0.1163,0.1372,0.1503,0.1745,0.1855,0.1928,0.1563,0.1199,0.0788,0.021,-0.0157,-0.0169,-0.0267,-0.0196,-0.0189,-0.0183,-0.0173,-0.0247,-0.0248,-0.0249,-0.025,0,0,0.0701,0.0798,0.0842,0.1082,0.1202,0.1399,0.1519,0.1722,0.1841,0.1947,0.1925,0.1805,0.1308,0.0881,0.0405,0.0087,0.0031,0.002,0.0073,0.022,0.023,-0.0096,-0.0069,0,0,0,0,0]}],[{"header":{"parameterUnit":"m.s-1","parameterCategory":2,"la1":30.2991,"la2":30.254,"lo1":-89.0895,"lo2":-89.0444,"dy":0.0017,"dx":0.0017,"nx":28,"ny":28,"refTime":"2024-04-24T09:00:00:Z","depth":"4","parameterNumber":2,"parameterNumberName":"U-component_of_CURRENTS"},"data":[0,0,0,0,0,0,0,0,0,0,0,0,0,0,0,0,0,0,0,0,0,0,0,0,0,0,0,0,0,0,0,0,0,0,0,0,0,0,0,0,0,0,0,0,0,0,0,0,0,0,0,0,0,0,0,0,0,0,0.1853,0.1854,0,0.1917,0.1918,0.1918,0.1967,0.1968,0.1968,0.1969,0.2016,0.2016,0.2017,0,0,0,0,0,0,0,0,0,0,0,0,0,0.1767,0.1769,0.1853,0.1854,0.1855,0.1917,0.1918,0.1919,0.1967,0.1968,0.1968,0.1969,0.2015,0.2016,0.2017,0,0,0,0,0,0,0,0,0,0,0,0,0,0.1813,0.1769,0.1853,0.1888,0.1892,0.1917,0.1918,0.1919,0.1967,0.1968,0.1969,0.197,0.2015,0.2016,0.2017,0.2004,0,0,0.202,0.202,0,0,0,0,0,0,0,0,0.1811,0.1816,0.1882,0.1886,0.189,0.1937,0.1905,0.1947,0.1967,0.1936,0.1969,0.197,0.1988,0.1992,0.1999,0.2006,0.2008,0.202,0.2021,0.2021,0.2021,0,0,0,0,0,0,0,0.1807,0.1814,0.1876,0.1883,0.1888,0.1899,0.1907,0.1913,0.1954,0.1939,0.1943,0.1953,0.199,0.1998,0.2,0.2009,0.202,0.2021,0.2022,0.2022,0.2096,0.2098,0,0,0,0,0,0,0.1803,0.1811,0.1874,0.1878,0.1854,0.19,0.1908,0.1919,0.1955,0.1962,0.1952,0.1955,0.1996,0.1999,0.2002,0.2085,0.2021,0.2022,0.2023,0.2095,0.2096,0.2098,0,0,0,0,0,0,0.1801,0.1808,0.1872,0.1848,0.1857,0.1901,0.1913,0.192,0.1967,0.1965,0.1972,0.1997,0.1997,0.2001,0.2032,0.2084,0.2022,0.2023,0.2093,0.2095,0.2097,0.2189,0,0,0,0,0,0,0.1798,0.1807,0.1831,0.1847,0.1858,0.1903,0.1912,0.1921,0.197,0.1976,0.2005,0.2008,0.1998,0.2031,0.2033,0.2084,0.2024,0.2091,0.2094,0.2097,0.2184,0.2194,0.2202,0,0,0,0,0,0.1795,0.1815,0.1832,0.1841,0.1884,0.1904,0.1911,0.1944,0.1972,0.1991,0.2012,0.2009,0.2049,0.2032,0.2035,0.2087,0.209,0.2093,0.2096,0.218,0.2192,0.2202,0,0,0,0,0,0,0.1792,0.1822,0.1841,0.1872,0.1897,0.1914,0.1945,0.1967,0.2001,0.2019,0.202,0.2024,0.2073,0.2061,0.2043,0.2114,0.2072,0.2076,0.2135,0.2146,0.2155,0.2169,0.2025,0,0,0,0,0,0.1802,0.1827,0.1852,0.188,0.19,0.1932,0.1955,0.1975,0.1999,0.2018,0.2039,0.206,0.2081,0.2099,0.2107,0.2144,0.2151,0.2179,0.2188,0.2196,0.2208,0.227,0.2287,0.2108,0.2108,0.2108,0,0,0.1809,0.183,0.1846,0.1882,0.1911,0.1939,0.1949,0.1991,0.2022,0.2015,0.2077,0.2093,0.2096,0.2138,0.216,0.2141,0.2249,0.22,0.2207,0.2215,0.2275,0.2293,0.2309,0.211,0.211,0.211,0,0,0.1819,0.1858,0.188,0.1905,0.1951,0.1968,0.199,0.203,0.2064,0.211,0.2121,0.2166,0.2196,0.2212,0.2222,0.2285,0.2293,0.2298,0.2362,0.2423,0.2438,0.2452,0.2478,0.2494,0.2306,0.2306,0.2306,0,0.1834,0.1861,0.189,0.1917,0.1946,0.1988,0.2018,0.2053,0.2099,0.2135,0.2141,0.2225,0.223,0.2291,0.2319,0.2309,0.2337,0.2323,0.2437,0.2451,0.2464,0.2487,0.2503,0.2311,0.231,0.231,0.2309,0,0.1847,0.1886,0.1905,0.1954,0.1986,0.202,0.2065,0.2116,0.2169,0.2205,0.229,0.2308,0.2362,0.2377,0.2371,0.247,0.2458,0.2441,0.2414,0.2488,0.2506,0.2521,0.2318,0.2316,0.2315,0.2313,0,0,0.1834,0.1902,0.1914,0.194,0.2011,0.2028,0.2103,0.217,0.223,0.2297,0.2377,0.2434,0.2475,0.2488,0.2502,0.2557,0.2669,0.2554,0.2555,0.2587,0.28,0.2615,0.2613,0.269,0.2694,0.2696,0.2774,0,0.1843,0.189,0.1929,0.1982,0.2008,0.2075,0.2135,0.2206,0.2277,0.2363,0.2428,0.2505,0.2508,0.2557,0.2619,0.2664,0.2715,0.2648,0.2717,0.2718,0.2552,0.2627,0.2707,0.2785,0.2789,0.2791,0.2793,0,0.1839,0.1871,0.1925,0.1994,0.2016,0.2064,0.2171,0.223,0.2358,0.242,0.2527,0.2583,0.27,0.2678,0.2813,0.2783,0.2806,0.2824,0.2827,0.2634,0.2561,0.2696,0.282,0.2818,0.2816,0.2814,0.2812,0,0.1791,0.1865,0.1908,0.1933,0.2021,0.2076,0.2142,0.2262,0.2326,0.248,0.2548,0.2683,0.2765,0.2844,0.2904,0.2886,0.3024,0.2991,0.2836,0.2822,0.2925,0.2909,0.3071,0.3071,0.3071,0.3071,0.3071,0,0.1761,0.1795,0.1897,0.1915,0.1973,0.2058,0.2149,0.2231,0.2372,0.2445,0.2587,0.2658,0.2821,0.2912,0.2947,0.2941,0.3066,0.286,0.2839,0.2958,0.2945,0.2935,0.2918,0.3074,0.3073,0.3073,0.3072,0,0.1685,0.1759,0.1804,0.1912,0.1949,0.1995,0.2138,0.2188,0.2348,0.2452,0.2513,0.269,0.2811,0.292,0.3041,0.2968,0.299,0.2945,0.3066,0.3048,0.2735,0.2723,0.2787,0.2781,0.2776,0.2772,0.2769,0,0.1643,0.1663,0.1779,0.1791,0.1843,0.1933,0.1981,0.2158,0.2224,0.2437,0.2469,0.2648,0.2744,0.2771,0.2897,0.2948,0.2909,0.2886,0.2809,0.2738,0.2712,0.2707,0.27,0.2761,0.276,0.2759,0.2757,0,0.1542,0.1608,0.1639,0.1674,0.1726,0.1772,0.1878,0.1926,0.2122,0.2292,0.2378,0.2448,0.2563,0.2664,0.272,0.2746,0.2891,0.2836,0.2845,0.2772,0.2707,0.2686,0.2685,0.2741,0.2743,0.2745,0.2746,0,0.1463,0.1456,0.1502,0.1525,0.1558,0.1564,0.1666,0.1755,0.1863,0.2134,0.2159,0.2345,0.2532,0.2558,0.2613,0.263,0.259,0.2493,0.2519,0.2539,0.2422,0.2302,0.2206,0,0,0,0,0,0.1356,0.1326,0.133,0.1331,0.1356,0.1399,0.1545,0.1667,0.19,0.1902,0.2035,0.2135,0.2227,0.2335,0.2307,0.2493,0.2587,0.2446,0.2483,0.2648,0.2668,0.2554,0,0,0,0,0,0,0.1269,0.1263,0.1275,0.1158,0.1131,0.1156,0.1256,0.1429,0.1477,0.1724,0.1804,0.1981,0.2123,0.2215,0.2253,0.2286,0.2261,0.2583,0.2577,0.2638,0.2655,0.267,0.256,0,0,0,0,0]},{"header":{"parameterUnit":"m.s-1","parameterCategory":2,"la1":30.2991,"la2":30.254,"lo1":-89.0895,"lo2":-89.0444,"dy":0.0017,"dx":0.0017,"nx":28,"ny":28,"refTime":"2024-04-24T09:00:00:Z","depth":"4","parameterNumber":3,"parameterNumberName":"V-component_of_CURRENTS"},"data":[0,0,0,0,0,0,0,0,0,0,0,0,0,0,0,0,0,0,0,0,0,0,0,0,0,0,0,0,0,0,0,0,0,0,0,0,0,0,0,0,0,0,0,0,0,0,0,0,0,0,0,0,0,0,0,0,0,0,0.0044,0.0044,0,0.0011,0.0011,0.0011,-0.0014,-0.0014,-0.0014,-0.0015,-0.0053,-0.0054,-0.0055,0,0,0,0,0,0,0,0,0,0,0,0,0,0.0062,0.0062,0.0044,0.0044,0.0044,0.0012,0.0011,0.0011,-0.0014,-0.0014,-0.0014,-0.0015,-0.0053,-0.0054,-0.0055,0,0,0,0,0,0,0,0,0,0,0,0,0,0.0044,0.0062,0.0044,0.0028,0.0026,0.0012,0.0011,0.001,-0.0014,-0.0014,-0.0015,-0.0015,-0.0052,-0.0054,-0.0055,-0.0056,0,0,-0.0059,-0.0059,0,0,0,0,0,0,0,0,0.0045,0.0043,0.003,0.0029,0.0027,0.0003,0.0003,-0.0012,-0.0014,0.0001,-0.0015,-0.0015,-0.0035,-0.0037,-0.0043,-0.0058,-0.006,-0.0059,-0.006,-0.006,-0.0061,0,0,0,0,0,0,0,0.0046,0.0045,0.0031,0.003,0.0028,0.0013,0.0011,-0.0,-0.0015,-0.0,-0.0002,-0.0005,-0.0036,-0.0042,-0.0044,-0.006,-0.0059,-0.006,-0.0061,-0.0061,-0.0074,-0.0074,0,0,0,0,0,0,0.0052,0.0046,0.0032,0.003,0.0035,0.0013,0.001,0.0011,-0.0015,-0.0019,-0.0005,-0.0006,-0.0039,-0.0043,-0.0046,-0.0038,-0.006,-0.0061,-0.0062,-0.0074,-0.0074,-0.0073,0,0,0,0,0,0,0.0053,0.0052,0.0034,0.0037,0.0034,0.0014,0.0014,0.001,0.0005,-0.0018,-0.0023,-0.0006,-0.004,-0.0044,-0.0048,-0.004,-0.0062,-0.0063,-0.0075,-0.0074,-0.0074,-0.0029,0,0,0,0,0,0,0.0054,0.0052,0.0055,0.0038,0.0034,0.0032,0.0014,0.001,0.0004,0.0002,-0.002,-0.0024,-0.004,-0.0046,-0.0049,-0.0042,-0.0064,-0.0075,-0.0075,-0.0074,-0.0031,-0.0027,-0.0023,0,0,0,0,0,0.0054,0.0062,0.0056,0.0054,0.0039,0.0032,0.0029,0.0013,0.0004,0.0007,-0.0007,-0.0023,-0.0044,-0.0046,-0.005,-0.0043,-0.0076,-0.0075,-0.0074,-0.0033,-0.0028,-0.0023,0,0,0,0,0,0,0.0071,0.006,0.0053,0.0056,0.0048,0.0028,0.0029,0.0018,0.0008,0.0007,-0.0017,-0.0021,-0.0023,-0.0038,-0.0041,-0.0045,-0.0063,-0.0063,-0.003,-0.0026,-0.0022,-0.0012,-0.0065,0,0,0,0,0,0.0077,0.008,0.0066,0.0069,0.0066,0.0048,0.0044,0.0034,0.0023,0.0018,0.0002,-0.0013,-0.0023,-0.0027,-0.004,-0.004,-0.0072,-0.0039,-0.0035,-0.0032,-0.0026,-0.0069,-0.0068,-0.007,-0.007,-0.007,0,0,0.0084,0.0078,0.008,0.0073,0.0064,0.007,0.0045,0.0043,0.005,0.0016,0.002,-0.0001,-0.002,-0.0021,-0.0023,-0.0031,-0.0049,-0.003,-0.0027,-0.0024,-0.0068,-0.0068,-0.0068,-0.007,-0.007,-0.007,0,0,0.0102,0.0096,0.0106,0.0104,0.0096,0.0086,0.0088,0.0073,0.0069,0.007,0.0046,0.0032,0.0019,0.0005,-0.0003,0.0014,-0.0029,0.0009,0.0038,-0.0003,-0.0004,-0.0004,-0.005,-0.0055,0.0012,0.0012,0.0013,0,0.0112,0.0124,0.0108,0.0119,0.0123,0.0098,0.0114,0.0108,0.0093,0.0092,0.008,0.0052,0.0033,0.0029,0.0035,0.0023,-0.0011,0.0023,0.0001,0.0,-0.0001,-0.0049,-0.0055,0.0015,0.0014,0.0014,0.0014,0,0.0138,0.015,0.0157,0.0165,0.0166,0.0176,0.0167,0.0168,0.0158,0.0144,0.0136,0.0106,0.0089,0.0078,0.0064,0.0048,0.0023,0.0009,-0.001,0.0001,-0.0049,-0.0056,0.0018,0.0017,0.0016,0.0016,0,0,0.0159,0.0174,0.0179,0.0196,0.0194,0.0203,0.0216,0.0219,0.0232,0.0204,0.021,0.0182,0.0154,0.0143,0.0113,0.0078,0.0035,0.0044,0.0041,-0.0001,-0.0065,-0.0066,-0.0074,0.0013,0.0012,0.0012,-0.0098,0,0.0187,0.0224,0.0221,0.0261,0.028,0.027,0.0291,0.0289,0.0276,0.0274,0.0231,0.0225,0.0182,0.0177,0.0133,0.0065,0.0019,0.0066,-0.007,-0.0074,-0.0076,-0.0081,0.0009,-0.0104,-0.0106,-0.0107,-0.0108,0,0.0216,0.024,0.0284,0.0322,0.0331,0.0352,0.0379,0.0396,0.0378,0.0368,0.0336,0.0294,0.0247,0.0209,0.0086,0.0116,0.0031,-0.0032,-0.0038,-0.0058,-0.0088,-0.0117,-0.0122,-0.012,-0.0119,-0.0119,-0.0118,0,0.0246,0.0286,0.0328,0.034,0.0375,0.04,0.0423,0.0423,0.0457,0.0427,0.0432,0.0352,0.0328,0.0211,0.0079,0.008,-0.0069,-0.0084,-0.0172,-0.0174,-0.0161,-0.0159,-0.0182,-0.0182,-0.0182,-0.0182,-0.0181,0,0.0277,0.0312,0.035,0.0377,0.0441,0.0448,0.0514,0.0515,0.0537,0.0576,0.0489,0.0486,0.0327,0.0223,0.0091,-0.0061,-0.0065,-0.017,-0.0201,-0.014,-0.0135,-0.0167,-0.0164,-0.0186,-0.0185,-0.0184,-0.0183,0,0.0298,0.0321,0.038,0.0435,0.0458,0.0508,0.0593,0.0642,0.0643,0.0688,0.0686,0.0589,0.0448,0.0273,0.0077,-0.003,-0.0185,-0.0244,-0.017,-0.0195,-0.0269,-0.0263,-0.0347,-0.0348,-0.0349,-0.035,-0.035,0,0.0311,0.0343,0.0427,0.0481,0.0512,0.0591,0.0656,0.0694,0.0751,0.0752,0.0778,0.0653,0.0562,0.0289,0.0088,-0.0178,-0.0215,-0.03,-0.0283,-0.0264,-0.0286,-0.0278,-0.027,-0.0352,-0.0352,-0.0352,-0.0352,0,0.0342,0.0375,0.0428,0.0536,0.0616,0.0716,0.0806,0.0851,0.0898,0.0894,0.0862,0.071,0.0541,0.0306,0.0091,-0.0098,-0.0244,-0.0309,-0.0309,-0.0293,-0.027,-0.0289,-0.0281,-0.0355,-0.0354,-0.0354,-0.0354,0,0.0373,0.0414,0.0494,0.0591,0.0696,0.0807,0.0854,0.0921,0.0972,0.0965,0.0946,0.0753,0.0639,0.0345,0.0151,-0.004,-0.0087,-0.0142,-0.0151,-0.015,-0.0063,-0.0003,-0.0032,0,0,0,0,0,0.0401,0.0454,0.0546,0.066,0.0767,0.0833,0.0942,0.0984,0.101,0.1007,0.0987,0.083,0.0537,0.0399,0.0211,0.0119,-0.0135,-0.0111,-0.0205,-0.037,-0.0366,-0.0297,0,0,0,0,0,0,0.0423,0.0504,0.0546,0.0697,0.0783,0.0914,0.0985,0.1014,0.1017,0.1004,0.0852,0.078,0.0491,0.0644,0.0204,0.0143,0.0058,-0.025,-0.0254,-0.0371,-0.0369,-0.0366,-0.0294,0,0,0,0,0]}]]